Weather History for KRSL - October, 2012

Change the Weather History Date:

Monday, October 1, 2012

  Actual Average Record
Temperature  
Mean Temperature 62 °F -  
Max Temperature 73 °F 79 °F 97 °F (2006)
Min Temperature 48 °F 50 °F 30 °F (1958)
Degree Days  
Heating Degree Days 4    
Growing Degree Days 12 (Base 50)    
Moisture  
Dew Point 46 °F    
Average Humidity 64    
Maximum Humidity 83    
Minimum Humidity 35    
Precipitation  
Precipitation 0.12 in - - ()
Sea Level Pressure  
Sea Level Pressure 29.99 in    
Wind  
Wind Speed 11 mph (North)    
Max Wind Speed 29 mph    
Max Gust Speed 37 mph    
Visibility 10 miles    
Events Rain , Thunderstorm    
Averages and records for this station are not official NWS values.
T = Trace of Precipitation, MM = Missing Value Source: NWS Daily Summary

Daily Weather History Graph

Daily Weather History Graph

Search for Another Location

Airport or City:

Trip Planner

Search our weather history database for the weather conditions in past years. The results will help you decide how hot, cold, wet, or windy it might be!

Date:

Astronomy

Oct. 01, 2012 Rise Set
Actual Time 7:31 AM CDT 7:17 PM CDT
Civil Twilight 7:05 AM CDT 7:43 PM CDT
Nautical Twilight 6:34 AM CDT 8:14 PM CDT
Astronomical Twilight 6:03 AM CDT 8:45 PM CDT
Moon 7:56 PM CDT (10/1) 9:01 AM CDT (10/1)
Length of Visible Light 12h 38m
Length of Day
11h 45m
Full, 98% of the Moon is Illuminated
Oct 1
Full
Oct 8
Last Quarter
Oct 15
New
Oct 21
First Quarter
Oct 29
Full

Hourly Weather History & Observations

Time (CDT) Temp. Dew Point Humidity Pressure Visibility Wind Dir Wind Speed Gust Speed Precip Events Conditions
12:53 AM 50.0 °F 41.0 °F 71% 29.93 in 10.0 mi SW 6.9 mph - N/A   Clear
1:53 AM 50.0 °F 41.0 °F 71% 29.92 in 10.0 mi SW 6.9 mph - N/A   Clear
2:53 AM 52.0 °F 41.0 °F 66% 29.91 in 10.0 mi Calm Calm - N/A   Clear
3:53 AM 53.6 °F 41.0 °F 62% 29.93 in 10.0 mi Calm Calm - N/A   Clear
4:53 AM 52.0 °F 43.0 °F 71% 29.92 in 10.0 mi Variable 3.5 mph - N/A   Mostly Cloudy
5:53 AM 51.1 °F 43.0 °F 74% 29.93 in 10.0 mi WNW 6.9 mph - N/A   Mostly Cloudy
6:53 AM 51.1 °F 43.0 °F 74% 29.92 in 10.0 mi West 3.5 mph - N/A   Mostly Cloudy
7:53 AM 55.0 °F 46.9 °F 74% 29.98 in 10.0 mi NNW 15.0 mph - 0.00 in   Mostly Cloudy
8:04 AM 57.2 °F 48.2 °F 72% 29.99 in 10.0 mi North 17.3 mph - N/A Thunderstorm Mostly Cloudy
8:25 AM 57.2 °F 51.8 °F 82% 30.00 in 2.5 mi NNE 26.5 mph 34.5 mph 0.08 in Rain , Thunderstorm Heavy Thunderstorms and Rain
8:37 AM 57.2 °F 51.8 °F 82% 30.01 in 4.0 mi NNE 18.4 mph 28.8 mph 0.11 in Rain , Thunderstorm Thunderstorms and Rain
8:53 AM 57.0 °F 52.0 °F 83% 30.00 in 10.0 mi North 11.5 mph - 0.11 in   Mostly Cloudy
9:53 AM 59.0 °F 54.0 °F 83% 30.03 in 10.0 mi North 12.7 mph - 0.01 in   Scattered Clouds
10:53 AM 61.0 °F 54.0 °F 78% 30.05 in 10.0 mi North 15.0 mph 23.0 mph N/A   Overcast
11:53 AM 66.0 °F 53.1 °F 63% 30.04 in 10.0 mi North 17.3 mph - N/A   Overcast
12:53 PM 70.0 °F 52.0 °F 53% 30.03 in 10.0 mi North 21.9 mph 29.9 mph N/A   Scattered Clouds
1:53 PM 73.0 °F 46.9 °F 39% 30.01 in 10.0 mi NNE 23.0 mph 33.4 mph N/A   Scattered Clouds
2:53 PM 71.1 °F 46.9 °F 42% 29.99 in 10.0 mi North 20.7 mph 31.1 mph N/A   Mostly Cloudy
3:53 PM 73.0 °F 44.1 °F 35% 29.99 in 10.0 mi North 28.8 mph 36.8 mph N/A   Partly Cloudy
4:53 PM 71.6 °F 44.6 °F 38% 30.01 in 10.0 mi North 23.0 mph 31.1 mph N/A   Partly Cloudy
5:53 PM 70.0 °F 44.1 °F 39% 30.00 in 10.0 mi NNE 18.4 mph - N/A   Clear
6:53 PM 64.9 °F 43.0 °F 45% 30.01 in 10.0 mi NE 11.5 mph - N/A   Clear
7:53 PM 57.9 °F 44.1 °F 60% 30.02 in 10.0 mi North 6.9 mph - N/A   Clear
8:53 PM 54.0 °F 44.1 °F 69% 30.04 in 10.0 mi NNW 9.2 mph - N/A   Clear
9:53 PM 53.6 °F 44.6 °F 72% 30.06 in 10.0 mi North 8.1 mph - N/A   Clear
10:53 PM 53.1 °F 43.0 °F 69% 30.06 in 10.0 mi NNW 9.2 mph - N/A   Clear
11:53 PM 48.0 °F 39.0 °F 71% 30.06 in 10.0 mi NNW 8.1 mph - N/A   Clear